Content
SEND FEEDBACK

Daily
Averages
Monthly
Summary
Canada

VANCOUVER - CITY HALL, BRITISH COLUMBIA


Home > North America > Canada > British Columbia
Elevation: 283 feet     Latitude: 49 17N     Longitude: 123 07W

WEATHER
 
SELECT A DAY
Number of Records: 173,881;   Date Range: 4/23/95 - 12/17/14
 
SHARE

PRINT THIS DATA

[ ← Previous Day ]
WEATHER ALMANAC - SEPTEMBER 21, 2013
[ Next Day → ]
[ °C ]   °F
Weather ElementAverageHighLow
Temperature58.3 °F65 °F (5:00 pm)54.3 °F (6:00 am)
Dewpoint53 °F54.9 °F (2:00 pm)51 °F (5:00 pm)
Humidity82.7 %96 % (7:00 am)52 % (5:00 pm)
Barometer29.69 in29.72 in (12:00 pm)29.65 in (1:00 am)
Wind Speed2 mph3.5 mph (1:00 am)
Weather ElementAverage
Wind DirectionESE (103 °)

Weather ElementTotal
Precipitation0.14 in
Heating Degree Days5.4 (Base 65)
Growing Degree Days9.7 (Base 50)
Averaged from 27 records on September 21, 2013
WEATHER CONDITIONS BREAKOUT
WIND DIRECTION BREAKOUT
WEATHER BY HOUR - SEPTEMBER 21, 2013
[ °C ]   °F
Local TimeTemperatureDewpointHumidityBarometerVisibilityWind DirectionWind SpeedGust SpeedPrecipitationEventsConditions
1:00 AM55.6 °F53.8 °F94 %29.65 inENE (60°)3.5 mph0.02 in
2:00 AM55.6 °F54.0 °F94 %29.65 inEast (80°)2.3 mph0.05 in
3:00 AM55.6 °F54.0 °F94 %29.66 inENE (60°)2.3 mph
4:00 AM55.4 °F53.8 °F94 %29.66 inENE (60°)1.2 mph
5:00 AM55.0 °F54.0 °F93 %29.66 inNNE (30°)2.3 mph
5:00 AM55.0 °F53.6 °F95 %29.66 inNNE (30°)2.3 mph0.07 in
6:00 AM54.3 °F52.9 °F95 %29.66 inENE (70°)2.3 mph
7:00 AM55.0 °F53.8 °F96 %29.68 inEast (80°)1.2 mph
8:00 AM55.6 °F53.6 °F93 %29.68 inENE (70°)2.3 mph
9:00 AM56.7 °F54.3 °F92 %29.69 inEast (80°)3.5 mph
10:00 AM57.0 °F54.5 °F91 %29.71 inESE (110°)1.2 mph
11:00 AM58.0 °F54.0 °F83 %29.71 inESE (110°)2.3 mph
11:00 AM58.1 °F54.3 °F87 %29.71 inESE (110°)2.3 mph
12:00 PM59.9 °F53.2 °F79 %29.72 inEast (100°)1.2 mph
1:00 PM62.6 °F51.3 °F66 %29.72 inSouth (180°)1.2 mph
2:00 PM64.2 °F54.9 °F72 %29.72 inSW (230°)1.2 mph
3:00 PM62.8 °F53.8 °F72 %29.72 inSouth (190°)1.2 mph
4:00 PM61.5 °F52.7 °F73 %29.72 inSSW (200°)1.2 mph
5:00 PM65.0 °F51.0 °F52 %29.70 inSouth (180°)1.2 mph
5:00 PM64.6 °F51.4 °F62 %29.70 inSouth (180°)1.2 mph
6:00 PM61.5 °F51.6 °F70 %29.70 inSouth (190°)1.2 mph
7:00 PM59.2 °F52.3 °F78 %29.70 inNE (40°)1.2 mph
8:00 PM56.7 °F52.2 °F85 %29.70 inNE (40°)2.3 mph
9:00 PM57.9 °F52.0 °F81 %29.70 inEast (80°)2.3 mph
10:00 PM58.3 °F51.3 °F77 %29.69 inEast (80°)2.3 mph
11:00 PM56.0 °F52.0 °F81 %29.68 inENE (70°)3.5 mph
11:00 PM56.5 °F51.8 °F84 %29.68 inENE (70°)3.5 mph
Hourly data recorded from CWWA, located miles away from Vancouver - City Hall, British Columbia







STORIES FROM OUR PARTNERS